Location: B?dargowo
(53.3916°N, 14.4413°E)
Time: 20:11:50
(UTC+00:00)

FENGYUN 1C DEB - Visible Passes

Search period start: 02 March 2024 00:00
Search period end: 12 March 2024 00:00
Orbit: 811 x 867 km, 99.3° (Epoch: 02 March)

Date Brightness Start Highest point End Pass type
(mag) Time Alt. Az. Time Alt. Az. Time Alt. Az.
02 Mar ? 04:38:34 10° ESE 04:42:35 22° NE 04:46:34 10° N visible
02 Mar ? 18:31:08 10° NE 18:33:19 19° ENE 18:33:19 19° ENE visible
02 Mar ? 20:10:59 10° NNE 20:15:06 52° N 20:15:06 52° N visible
02 Mar ? 21:52:38 10° N 21:55:51 17° NW 21:56:52 16° WNW visible
03 Mar ? 04:24:02 10° E 04:27:32 18° NE 04:31:01 10° N visible
03 Mar ? 18:16:18 10° NE 18:18:10 16° ENE 18:18:10 16° ENE visible
03 Mar ? 19:55:41 10° NNE 19:59:56 58° NNE 19:59:56 58° NNE visible
03 Mar ? 21:37:01 10° N 21:40:49 20° NW 21:41:42 19° WNW visible
04 Mar ? 04:09:40 10° ENE 04:12:30 15° NE 04:15:21 10° NNE visible
04 Mar ? 18:01:43 10° NE 18:02:59 13° ENE 18:02:59 13° ENE visible
04 Mar ? 19:40:25 10° NNE 19:44:46 57° NE 19:44:46 57° NE visible
04 Mar ? 21:21:30 10° N 21:25:45 25° NW 21:26:32 24° WNW visible
05 Mar ? 03:55:33 10° ENE 03:57:30 12° NE 03:59:29 10° NNE visible
05 Mar ? 19:25:11 10° NNE 19:29:35 51° ENE 19:29:35 51° ENE visible
05 Mar ? 21:06:02 10° N 21:10:39 30° WNW 21:11:21 29° WNW visible
06 Mar ? 19:10:01 10° NNE 19:14:24 42° ENE 19:14:24 42° ENE visible
06 Mar ? 20:50:36 10° N 20:55:30 38° WNW 20:56:10 36° WNW visible
07 Mar ? 05:01:53 10° ESE 05:06:27 30° ENE 05:11:01 10° N visible
07 Mar ? 18:54:52 10° NNE 18:59:13 34° E 18:59:13 34° E visible
07 Mar ? 20:35:12 10° N 20:40:20 48° WNW 20:40:59 45° W visible
07 Mar ? 22:17:30 10° NNW 22:19:35 12° NW 22:21:41 10° WNW visible
08 Mar ? 04:47:08 10° ESE 04:51:20 24° NE 04:55:32 10° N visible
08 Mar ? 18:39:48 10° NE 18:44:01 27° E 18:44:01 27° E visible
08 Mar ? 20:19:50 10° NNE 20:25:07 61° WNW 20:25:48 56° W visible
08 Mar ? 22:01:38 10° NNW 22:04:34 15° NW 22:07:32 10° W visible
09 Mar ? 04:32:30 10° E 04:36:14 20° NE 04:40:00 10° N visible
09 Mar ? 18:24:51 10° NE 18:28:49 21° E 18:28:49 21° E visible
09 Mar ? 20:04:29 10° NNE 20:09:52 78° WNW 20:10:36 65° SW visible
09 Mar ? 21:45:57 10° N 21:49:31 18° NW 21:52:22 13° W visible
10 Mar ? 04:18:00 10° E 04:21:11 16° NE 04:24:21 10° N visible
10 Mar ? 18:10:04 10° NE 18:13:21 16° E 18:13:37 16° E visible
10 Mar ? 19:49:10 10° NNE 19:54:34 83° ESE 19:55:23 65° S visible
10 Mar ? 21:30:22 10° N 21:34:26 23° NW 21:37:09 16° W visible
11 Mar ? 04:03:42 10° ENE 04:06:08 13° NE 04:08:34 10° NNE visible
11 Mar ? 17:55:42 10° ENE 17:57:48 12° E 17:58:24 12° E visible
11 Mar ? 19:33:53 10° NNE 19:39:15 65° ESE 19:40:10 55° SSE visible
11 Mar ? 21:14:50 10° N 21:19:19 28° NW 21:21:56 19° W visible
